sat.trackr.live / text

‹ back to catalog

STARLINK-34199

NORAD 64924 · 2025-157W

PAYLOAD ACTIVE UNKNOWN

§ Identity

Operator
Country
US
Launch date
2025-07-26
Launch site
AFETR
Launch vehicle
Mass (kg)
RCS (m²)

Purposes: comms

External: N2YO · Heavens-Above · Gunter

§ Orbital elements

Epoch: 2026-09-20T10:11:53.337696Z

Period
94.01 min
Inclination
53.1596°
Eccentricity
0.0000911
Mean motion
15.31694202 rev/d
Perigee alt
470.1 km
Apogee alt
471.4 km
Semi-major
6,848.9 km
B*
4.4929e-4
RAAN
159.3656°
Arg perigee
119.7130°
Mean anomaly
240.3962°
Rev number
6,591

§ Raw data

STARLINK-341991 64924U 25157W   26263.42492289  .00013600  00000+0  44929-3 0  99942 64924  53.1596 159.3656 0000911 119.7130 240.3962 15.31694202 65914

JSON: /api/v1/satellites/64924 · /tle

For live sub-satellite position, see the globe view (requires WebGL).

§ Visibility from observer

Set your observer location to see the next 7 days of passes ≥ 10°. The values pass through the URL so the page stays shareable.

No JS? Fill the form by hand. The geolocation button needs JavaScript.